Regional Weather Roundup
Issued by NWS

Home | Current Version | Previous Version | Graphics & Text | Print | Product List | Glossary Off
Versions: 1 2 3 4 5 6 7 8 9 10 11 12 13 14 15 16 17 18 19 20 21 22 23 24 25 26 27 28 29 30 31 32 33 34 35 36 37 38 39 40 41 42 43 44 45 46 47 48 49 50

000
ASUS43 KTOP 270408
RWRKS

WEATHER ROUNDUP FOR KANSAS
NATIONAL WEATHER SERVICE GOODLAND KS
1100 PM CDT WED APR 26 2017

NOTE:  "FAIR" INDICATES FEW OR NO CLOUDS BELOW 12,000 FEET WITH NO
SIGNIFICANT WEATHER AND/OR OBSTRUCTIONS TO VISIBILITY.

KSZ001>006-013>018-027>032-041>047-270500-
NORTHWEST KANSAS

CITY           SKY/WX    TMP DP  RH WIND       PRES   REMARKS
GOODLAND       CLEAR     41  29  62 S7        29.72R
HAYS           CLEAR     40  33  76 E6        29.74R
HILL CITY      CLEAR     38  31  76 CALM      29.74R
RUSSELL        CLEAR     39  32  76 E7        29.73R
$$

KSZ061>065-074>080-084>089-270500-
SOUTHWEST KANSAS

CITY           SKY/WX    TMP DP  RH WIND       PRES   REMARKS
DODGE CITY     CLEAR     46  32  58 S3        29.74R
ELKHART          N/A     50  32  50 SW3         N/A
GARDEN CITY    CLEAR     46  29  51 SE6       29.74R
GREAT BEND     CLEAR     42  34  73 CALM      29.74S
LIBERAL        PTCLDY    47  35  63 SE6       29.75S
PRATT          PTCLDY    44  34  66 E3        29.75R
$$

KSZ066>073-081>083-090>101-270500-
SOUTHEAST KANSAS

CITY           SKY/WX    TMP DP  RH WIND       PRES   REMARKS
CHANUTE        CLEAR     44  38  79 NW5       29.71R
COFFEYVILLE    CLOUDY    50  44  80 W6        29.71R
HUTCHINSON     CLEAR     37  33  85 CALM      29.73S
MEDICINE LODGE   N/A     44  36  73 CALM      29.74R
PARSONS        CLOUDY    49  47  93 CALM      29.72R
WICHITA INTL   CLEAR     46  38  73 NW3       29.73R
WICHITA JABRA  CLEAR     43  37  79 NW6       29.73R
WICHITA MCCONL CLEAR     46  36  68 N5        29.73R
WINFIELD       CLEAR     42  38  85 CALM      29.75R
$$

KSZ007>012-019>026-033>040-048>060-102>105-270500-
NORTHEAST KANSAS

CITY           SKY/WX    TMP DP  RH WIND       PRES   REMARKS
CONCORDIA      CLEAR     38  32  79 NW7       29.74R
EMPORIA        MOCLDY    44  37  76 NW5       29.70S
LAWRENCE       CLOUDY    45  36  70 NW13      29.70R
MANHATTAN      PTCLDY    44  35  70 CALM      29.71F
MARYSVILLE     CLOUDY    45  34  65 N9        29.71S
OLATHE IND     CLOUDY    43  36  76 NW12      29.68S
OLATHE EXE     CLOUDY    43  36  76 NW10      29.67R
SALINA         CLEAR     44  35  70 CALM      29.74S
TOPEKA BILLARD CLOUDY    46  37  71 NW8       29.70S
TOPEKA FORBES  CLOUDY    47  35  63 NW15      29.69S
$$




USA.gov is the U.S. government's official web portal to all federal, state and local government web resources and services.